This is the latest recevied weather packets stored in our database for station/object DF2AP-13. If no packets are shown the sender has not sent any weather packets the latest 10 day(s).
| Time | Temp. | Humidity | Pressure | Rain* | Wind** | Luminosity | Snow |
|---|---|---|---|---|---|---|---|
| 1777646727 | 23.89° C | 30% | 1026.4 hPa | - | - | - | - |
| 1777646132 | 23.89° C | 31% | 1026.6 hPa | - | - | - | - |
| 1777645527 | 23.33° C | 32% | 1026.8 hPa | - | - | - | - |
| 1777644927 | 23.33° C | 32% | 1026.8 hPa | - | - | - | - |
| 1777644327 | 23.89° C | 31% | 1026.9 hPa | - | - | - | - |
| 1777643727 | 23.89° C | 32% | 1026.9 hPa | - | - | - | - |
| 1777643127 | 23.33° C | 33% | 1027.2 hPa | - | - | - | - |
| 1777642527 | 22.78° C | 32% | 1027.3 hPa | - | - | - | - |
| 1777641927 | 22.22° C | 35% | 1027.4 hPa | - | - | - | - |
| 1777641327 | 22.22° C | 34% | 1027.6 hPa | - | - | - | - |
| 1777640727 | 22.22° C | 32% | 1027.8 hPa | - | - | - | - |
| 1777640127 | 21.67° C | 36% | 1028 hPa | - | - | - | - |
| 1777639527 | 22.22° C | 34% | 1028.1 hPa | - | - | - | - |
| 1777638927 | 21.67° C | 34% | 1028.3 hPa | - | - | - | - |
| 1777638327 | 21.67° C | 35% | 1028.4 hPa | - | - | - | - |
| 1777637727 | 21.67° C | 34% | 1028.5 hPa | - | - | - | - |
| 1777637127 | 21.67° C | 34% | 1028.6 hPa | - | - | - | - |
| 1777636527 | 21.67° C | 33% | 1028.6 hPa | - | - | - | - |
| 1777635933 | 22.78° C | 33% | 1028.7 hPa | - | - | - | - |
| 1777635327 | 22.22° C | 35% | 1028.8 hPa | - | - | - | - |
| 1777634727 | 21.11° C | 36% | 1029.1 hPa | - | - | - | - |
| 1777634127 | 20.56° C | 36% | 1029.2 hPa | - | - | - | - |
| 1777633527 | 20.56° C | 35% | 1029.4 hPa | - | - | - | - |
| 1777632927 | 20.56° C | 36% | 1029.5 hPa | - | - | - | - |
| 1777632327 | 20.56° C | 38% | 1029.6 hPa | - | - | - | - |
* Rain since midnight (hover to see other rain measurements)
** Current wind speed in m/s (hover to see current wind gust speed)